GEFSSE_500_meanwind_066.txt.gz
Wind_Speed
8 9 9 9 9 9 8 8 7 7 7 6 6 5 5 4 3 3 3 3 4 5 6 8 9 10 12 12 13 13 12 12 12 12 12 12 12 11 10 10 10 10 11
6 7 7 8 8 8 7 7 7 7 7 6 6 5 5 4 3 3 2 2 2 2 3 5 7 8 9 11 12 12 12 13 13 13 13 13 13 12 12 11 11 11 10
4 5 5 6 6 6 6 6 6 6 6 6 5 5 5 4 4 3 2 2 2 1 1 2 4 5 6 7 8 10 10 11 12 12 13 14 14 13 12 11 11 11 9
4 4 4 4 4 5 5 5 5 5 5 5 4 4 4 4 3 3 2 2 2 1 1 1 1 2 3 4 5 7 8 8 9 10 11 12 12 10 10 10 10 9 8
6 5 5 5 4 4 4 4 3 3 3 3 3 3 3 3 2 2 2 2 1 1 1 1 0 1 2 3 4 5 6 6 7 7 8 9 9 8 8 8 8 8 8
7 7 7 7 6 6 5 5 4 4 3 3 2 2 2 2 1 1 1 1 1 1 1 1 1 0 1 2 3 4 4 4 5 5 6 7 7 7 7 7 7 7 7
8 9 9 9 9 8 8 7 7 6 5 5 4 3 3 3 2 2 1 1 1 1 1 0 0 1 1 1 3 3 3 3 4 4 5 5 5 5 5 6 6 6 5
10 10 11 11 11 11 11 10 10 9 8 8 7 6 5 5 5 4 4 3 3 3 2 2 2 2 2 2 3 3 3 3 3 4 4 4 4 4 4 5 4 5 4
12 12 13 13 13 13 13 13 12 12 11 10 10 9 9 8 7 7 7 6 6 5 4 4 3 3 3 3 3 3 3 3 3 3 3 4 3 3 3 3 2 2 2
14 14 14 15 16 16 16 16 15 15 14 13 13 12 12 11 10 10 10 9 8 8 7 6 5 5 4 4 4 4 3 3 2 2 3 3 2 2 2 2 1 1 1
17 17 17 17 17 18 18 18 18 18 18 17 17 16 15 14 13 13 12 12 11 10 9 9 8 7 6 6 5 5 4 3 3 2 3 2 2 2 1 1 1 1 1
19 20 20 21 21 20 20 20 20 21 21 21 21 20 19 18 16 16 15 14 14 13 12 11 10 9 8 8 7 6 5 4 4 3 3 3 3 2 2 2 2 1 1
23 23 23 24 24 24 24 23 22 23 23 23 23 23 22 21 20 19 19 18 17 16 15 14 13 11 10 10 9 8 7 6 5 5 5 4 4 3 3 3 3 2 2
26 27 27 27 27 27 27 27 25 26 25 25 25 24 24 24 23 22 22 21 19 18 18 17 16 14 13 12 11 10 9 8 7 7 6 6 5 4 4 3 3 3 3
30 30 31 31 31 31 30 30 29 29 28 27 27 27 27 26 25 25 24 23 22 21 20 20 19 17 16 14 13 13 12 11 9 9 8 7 7 6 5 5 4 4 4
35 35 35 35 35 34 34 33 33 33 32 31 31 31 30 29 28 27 27 26 24 23 23 22 21 20 19 17 16 15 14 14 12 11 11 9 8 8 7 7 6 6 6
38 39 39 40 39 38 38 37 36 36 36 35 34 33 32 32 31 29 28 28 27 25 24 23 23 22 21 20 19 17 16 16 15 13 13 12 10 9 9 9 8 8 8
41 41 41 42 42 42 42 41 39 39 38 38 38 36 35 34 33 32 30 28 28 28 26 25 25 24 23 22 21 20 19 18 17 16 15 14 12 11 11 11 10 10 10
42 42 42 42 43 43 43 43 43 42 42 40 40 38 38 37 36 34 32 30 29 29 29 27 27 26 25 23 23 22 22 20 20 18 17 16 15 14 13 13 13 12 12
41 41 41 42 42 43 43 44 44 44 44 44 43 42 41 40 37 35 34 33 31 31 30 30 28 28 28 26 25 23 23 22 21 21 20 19 18 17 16 15 15 14 14
38 39 40 40 41 41 42 43 43 44 44 44 44 43 43 41 40 37 36 36 34 33 32 31 30 29 29 28 26 25 25 24 24 23 22 21 20 19 19 18 17 17 17
35 36 37 37 38 39 40 40 41 42 42 42 42 42 42 41 40 39 38 37 36 34 33 32 30 30 30 29 28 26 25 24 26 25 25 24 23 22 21 21 20 20 20
31 31 32 33 34 35 36 37 38 40 40 40 40 40 40 40 40 39 38 38 36 34 34 34 32 30 31 30 29 28 26 25 26 25 25 25 24 23 23 23 22 22 22
27 27 28 29 30 31 32 33 34 35 37 38 38 38 39 39 38 39 38 37 35 34 34 34 34 33 32 31 30 30 29 27 27 26 25 25 26 25 24 25 24 23 23
23 23 24 25 26 27 28 30 31 33 34 35 36 37 36 36 37 37 36 36 35 35 34 34 34 34 32 32 31 32 32 30 28 27 26 25 25 24 24 25 25 25 25
20 20 21 21 21 23 24 25 26 28 29 31 32 33 33 34 34 35 35 35 34 34 34 35 33 33 33 32 32 32 32 31 31 29 28 27 25 25 26 26 26 26 26

GEFSSE_500_meanwind_072.txt.gz
Wind_Speed
4 5 5 6 6 6 6 5 4 3 3 2 2 1 0 1 2 3 4 5 6 7 9 11 11 12 13 14 14 14 14 14 14 14 13 13 12 12 12 11 10 9 9
2 2 3 3 4 4 4 4 3 2 1 1 1 1 0 0 1 2 2 3 4 5 7 8 9 10 11 12 12 13 13 14 14 14 14 14 14 14 13 12 10 9 8
1 1 0 1 1 1 1 1 1 1 1 0 0 0 0 1 1 1 2 3 4 4 5 6 7 8 9 10 10 11 11 11 12 13 13 13 12 12 11 10 9 8 7
3 3 3 2 2 2 1 1 1 2 2 2 2 2 2 2 2 2 2 2 3 4 4 5 5 6 7 8 8 8 8 9 10 11 11 10 10 9 9 8 8 7 6
5 5 5 5 5 5 4 4 4 4 4 4 4 3 3 3 3 3 3 3 3 4 4 4 5 5 5 6 6 7 7 7 8 8 8 8 7 7 7 7 7 6 5
6 7 7 7 8 8 8 7 7 7 7 6 6 5 5 5 4 4 4 4 4 4 4 4 5 5 5 5 5 6 6 6 6 6 6 6 6 5 5 6 5 5 4
8 9 9 10 10 10 11 11 10 10 10 10 9 9 8 7 7 6 6 6 5 5 5 5 5 5 5 5 5 5 5 5 5 4 4 4 4 4 3 3 4 4 3
9 10 11 12 13 13 13 14 14 13 13 13 12 12 11 10 10 9 8 8 7 7 6 6 6 6 6 5 5 5 5 5 5 4 4 3 3 3 2 3 3 3 3
11 12 12 14 15 15 16 16 16 16 16 16 15 15 14 13 13 12 11 10 9 9 8 7 7 7 6 6 6 5 5 5 5 4 4 3 2 2 2 2 1 1 1
14 15 15 15 17 18 18 18 19 19 20 19 19 18 17 16 15 15 14 13 12 11 10 9 9 8 8 7 7 6 6 6 5 5 4 3 2 2 1 1 0 0 1
17 18 18 18 19 19 20 21 21 21 22 22 21 21 20 19 18 18 16 15 15 14 13 12 11 10 9 9 8 8 7 7 6 5 4 3 3 2 1 1 0 0 1
21 22 22 22 22 22 23 23 23 22 23 24 24 24 23 23 22 22 20 19 18 17 16 14 13 12 11 11 10 9 8 8 7 6 5 4 4 3 2 1 1 1 1
26 26 26 25 26 26 26 26 26 25 25 26 26 25 25 25 25 25 24 23 21 20 19 17 16 15 14 12 11 10 10 9 9 8 7 6 5 4 3 2 2 2 2
30 30 30 31 30 29 29 29 29 27 26 27 27 28 27 27 27 27 26 25 24 23 21 20 18 17 16 15 13 12 11 11 10 10 9 8 7 6 5 4 3 3 3
33 34 34 34 34 34 33 32 32 31 30 28 28 28 28 27 27 26 27 27 25 24 24 23 21 20 18 17 16 15 14 13 12 11 10 9 9 8 7 6 5 4 4
36 36 37 37 37 37 37 37 36 35 34 33 32 32 31 30 30 29 28 28 27 26 25 24 23 22 21 19 18 17 15 14 14 14 13 11 10 9 9 7 6 6 5
37 38 39 39 39 40 40 40 39 38 37 36 36 35 34 32 32 30 29 28 28 28 28 26 25 22 22 21 19 18 17 17 17 16 15 13 12 11 10 9 8 8 7
37 38 39 39 39 40 41 41 41 40 39 39 38 37 36 35 33 32 30 30 28 29 28 27 26 24 22 22 21 20 20 20 20 19 18 16 15 13 12 11 10 10 9
35 36 37 37 38 38 39 40 40 40 40 39 39 38 37 36 34 33 32 31 30 28 27 26 26 26 25 24 24 23 22 22 22 21 20 18 17 16 15 14 12 12 11
32 33 34 35 36 36 37 38 39 39 39 39 39 39 39 38 36 35 33 32 30 29 28 26 26 26 26 26 25 24 24 23 23 22 21 20 19 18 17 16 15 14 13
29 30 30 31 32 33 34 34 35 36 37 38 39 39 38 38 37 36 34 34 33 31 30 28 28 28 27 27 26 25 25 25 25 24 23 22 21 20 19 19 18 17 15
27 27 27 28 28 29 30 30 32 33 34 35 36 37 38 38 37 37 36 35 34 34 32 30 30 29 28 28 27 27 26 26 27 25 24 24 24 23 22 21 20 20 19
25 25 25 25 25 25 26 26 28 29 30 31 32 34 35 36 36 36 36 36 35 34 33 32 32 32 30 29 29 28 28 27 28 27 26 26 26 25 24 24 23 22 21
23 22 22 22 22 21 22 23 24 25 26 27 28 30 32 33 34 35 36 36 36 35 35 34 33 33 32 31 30 30 30 30 30 30 29 27 27 26 25 25 25 24 23
20 19 19 19 19 18 18 19 20 21 22 24 25 27 29 31 32 34 35 35 36 36 36 35 34 34 34 33 32 31 31 30 30 32 31 30 29 27 27 27 27 26 25
19 19 18 18 17 16 16 16 16 16 18 19 21 22 25 27 29 31 33 34 35 36 36 36 36 36 35 34 33 33 33 31 30 32 33 32 31 29 28 28 29 28 28

GEFSSE_500_meanwind_078.txt.gz
Wind_Speed
4 4 4 4 4 4 4 5 5 6 6 5 5 4 3 2 1 1 2 3 4 5 6 7 8 9 10 11 11 12 13 13 13 14 14 14 14 13 13 13 12 11 9
3 3 3 3 2 2 2 3 3 3 3 3 3 2 2 1 1 0 1 2 3 4 5 6 6 7 8 9 10 11 11 12 12 12 13 14 13 13 13 11 10 9 8
3 3 3 3 3 2 2 1 1 1 1 1 1 1 1 0 0 1 1 2 2 3 4 5 5 6 7 7 8 9 9 10 10 11 11 12 12 11 11 10 9 8 7
4 4 5 5 4 4 4 3 2 2 2 1 1 1 1 1 2 2 2 2 2 3 4 4 5 5 5 6 6 7 8 8 8 9 9 9 9 9 9 8 7 6 6
6 6 6 7 7 6 6 6 5 4 4 4 4 3 3 3 3 3 3 3 3 3 3 4 4 4 4 5 5 6 7 7 7 8 8 8 7 7 7 7 6 6 5
8 8 8 9 9 9 9 8 8 8 7 7 6 6 5 5 5 4 4 4 4 4 3 4 4 4 4 4 5 6 6 6 6 6 6 6 6 6 6 5 5 5 4
10 10 11 11 12 12 12 12 12 11 11 10 10 9 9 8 7 7 7 6 6 5 5 5 5 4 5 5 5 5 5 5 5 5 5 5 5 5 4 4 4 4 3
12 13 12 13 13 14 14 14 15 15 14 14 14 13 12 12 11 10 9 9 8 8 7 6 5 5 5 5 5 5 5 5 5 5 5 5 5 4 4 4 3 3 2
15 15 15 15 15 15 16 17 17 18 18 18 17 17 16 15 14 14 12 12 11 10 9 8 7 6 5 5 5 5 5 5 5 4 4 4 4 4 3 3 3 2 2
18 18 18 18 18 17 18 18 19 19 20 20 20 20 19 19 18 17 16 15 14 13 12 11 10 8 7 6 6 6 6 5 4 4 4 3 3 3 3 3 2 2 1
21 21 21 21 21 21 21 21 21 21 22 22 22 23 22 21 21 21 19 18 17 16 15 13 12 11 10 9 8 7 6 6 5 4 3 3 3 2 2 2 2 1 1
24 25 25 25 25 25 25 26 25 25 25 25 24 25 24 24 24 23 23 21 20 19 18 16 15 13 12 11 10 9 8 7 6 5 4 3 2 2 2 2 1 1 0
28 29 29 29 29 29 29 29 29 29 28 28 27 27 27 26 27 26 25 25 23 22 21 20 18 16 15 14 12 11 10 9 7 6 6 4 3 3 2 1 1 1 1
32 33 33 33 33 33 33 34 33 32 32 32 31 30 29 28 28 28 27 27 26 24 23 23 22 19 17 16 15 13 12 11 9 8 7 6 5 4 3 2 2 1 1
34 35 36 36 36 36 37 37 37 37 36 35 35 34 32 30 29 29 29 28 27 27 25 24 23 22 20 19 18 17 15 13 12 10 9 8 7 6 4 4 3 3 2
35 35 36 36 36 36 37 37 38 38 38 37 37 36 35 33 32 32 30 30 30 29 28 26 26 25 23 21 20 19 18 16 14 13 12 10 9 7 7 6 5 4 4
33 34 34 34 35 35 35 36 37 38 39 39 39 39 37 36 35 35 33 31 31 30 28 28 27 25 25 24 23 22 21 19 17 16 14 13 11 10 9 8 7 6 6
31 32 32 32 33 34 34 35 36 37 38 39 39 40 40 39 38 37 36 35 33 32 30 29 28 27 26 25 25 24 23 22 20 19 17 15 14 13 11 10 9 9 8
29 29 30 30 31 31 32 32 33 35 36 37 38 39 40 40 40 40 38 37 36 34 32 29 28 28 26 26 27 26 24 23 22 21 20 18 17 15 14 13 12 11 10
26 26 26 27 28 29 30 31 32 33 34 35 36 37 38 40 41 40 40 40 39 36 35 33 31 30 29 27 26 26 26 25 24 23 21 20 19 18 17 16 15 14 12
24 24 25 25 26 26 27 28 29 30 31 32 34 35 36 38 39 41 42 41 41 38 36 35 34 33 31 29 28 26 28 27 25 24 23 22 22 20 19 18 18 17 15
23 23 23 24 24 24 24 24 25 27 28 29 30 32 34 36 38 39 42 42 41 40 39 38 36 35 32 31 30 28 27 28 27 26 25 24 24 23 22 21 20 19 18
22 22 22 22 22 21 21 21 22 23 24 25 27 29 31 33 35 37 38 41 42 42 41 40 39 37 36 34 33 31 29 28 29 29 28 27 26 25 25 24 23 22 21
22 22 21 20 20 20 19 19 20 20 20 21 23 25 26 28 31 34 36 37 40 41 42 42 41 39 38 37 35 33 31 30 30 29 29 28 28 28 27 26 25 24 23
22 21 21 20 20 19 19 18 18 18 18 19 19 21 23 25 27 30 33 35 37 39 41 42 41 40 39 39 37 35 34 33 31 31 30 29 29 30 29 28 27 26 26
22 22 21 20 20 19 18 18 17 16 16 16 16 17 19 21 23 25 28 31 33 36 38 40 40 41 40 40 39 38 37 36 34 33 32 31 31 31 31 30 29 28 28

GEFSSE_500_meanwind_084.txt.gz
Wind_Speed
2 3 3 3 4 4 5 5 6 7 7 8 9 9 10 9 9 8 8 7 7 8 8 8 8 8 8 8 9 9 9 9 10 10 11 11 10 10 10 9 8 7 6
3 3 3 4 4 4 5 6 7 7 8 8 8 9 9 9 9 8 7 7 7 6 6 6 7 7 7 7 7 7 7 8 8 8 9 9 9 9 8 8 7 6 5
4 5 5 5 6 6 6 7 8 8 9 9 9 9 9 9 8 8 7 7 6 6 6 6 6 6 6 6 6 6 6 6 6 6 7 7 7 7 7 6 6 5 4
6 6 7 7 7 8 8 9 9 9 10 10 10 10 10 9 9 8 8 7 6 6 6 5 5 5 5 5 5 5 5 5 5 5 5 5 5 5 5 5 4 4 3
8 8 8 9 10 10 10 11 11 11 11 11 11 11 11 10 10 9 9 8 7 7 6 5 5 4 4 4 4 4 4 4 4 4 4 4 4 3 3 3 4 4 3
10 10 10 10 11 12 12 13 13 13 13 13 13 13 13 12 11 11 10 9 8 8 7 6 5 5 4 4 3 3 3 3 3 3 3 3 3 3 3 3 3 3 3
12 12 12 12 13 13 14 15 15 15 16 16 16 16 15 14 14 13 12 11 10 9 8 7 6 6 5 5 4 4 3 3 3 2 2 2 2 2 2 2 2 3 3
14 15 15 15 15 15 16 17 17 17 18 18 18 19 18 17 16 15 14 13 12 11 10 9 8 7 6 6 5 5 4 3 3 3 2 2 1 1 1 1 1 2 3
18 18 19 18 18 18 19 19 19 19 19 20 20 20 20 20 19 18 17 16 15 14 12 11 10 9 8 8 7 6 5 4 4 3 2 2 1 0 0 1 1 2 2
21 21 22 23 23 23 23 22 22 22 21 22 22 22 21 21 21 21 20 19 17 16 15 14 13 12 11 10 9 7 6 5 5 4 3 3 2 1 1 1 1 2 3
25 25 26 27 27 26 27 27 26 26 25 25 25 24 24 23 22 22 22 22 21 19 18 16 16 14 13 12 11 10 8 7 6 5 4 4 3 2 2 2 2 2 3
28 29 30 30 31 31 31 31 31 30 29 28 28 27 26 26 24 23 23 23 23 22 21 20 18 17 16 15 13 12 10 9 8 7 6 5 4 4 3 2 3 3 4
31 31 32 33 34 34 34 35 34 34 33 31 31 30 29 28 28 27 25 25 25 24 23 22 21 20 19 17 16 14 13 11 10 9 8 7 6 5 4 4 4 4 4
32 32 33 34 35 35 36 37 38 38 38 36 35 34 33 32 31 30 29 28 27 26 26 24 23 22 21 20 19 18 16 14 13 12 11 9 8 7 6 5 5 5 5
30 31 32 33 34 35 36 37 38 39 40 40 40 39 38 37 35 33 32 31 31 28 27 27 25 25 24 22 21 21 19 17 16 14 13 12 11 10 8 7 6 6 6
29 29 29 30 30 32 33 34 36 37 38 40 41 41 41 41 39 37 35 34 33 32 29 29 28 27 26 24 23 23 22 20 19 17 15 14 13 12 11 9 8 8 8
26 27 27 27 27 28 29 31 32 34 36 38 39 40 41 42 41 40 37 35 34 33 31 30 31 29 29 27 26 25 24 22 21 20 18 17 16 14 13 12 11 10 10
24 24 24 24 25 26 26 27 29 30 32 34 36 38 39 41 42 41 41 38 36 35 34 33 31 31 31 29 28 27 26 26 24 22 21 20 18 17 16 15 14 12 12
22 22 23 24 25 25 25 26 26 28 29 31 33 35 37 38 40 41 41 41 40 38 37 36 35 34 33 31 30 29 28 27 27 25 24 23 21 20 19 17 16 15 14
21 22 22 23 23 24 24 25 26 26 28 29 31 32 34 36 38 39 40 41 42 41 39 38 37 36 35 32 31 31 30 29 28 27 26 25 24 23 21 20 18 17 16
21 21 21 22 22 21 21 22 23 23 24 26 28 30 32 33 36 37 38 39 41 42 41 40 39 38 37 35 33 30 31 31 29 28 27 27 27 25 24 22 21 20 19
20 21 21 20 20 19 19 19 19 20 21 22 24 27 29 30 32 34 36 37 39 41 42 42 41 39 39 37 35 33 31 32 31 30 29 28 28 27 26 25 24 23 21
21 21 21 20 19 18 18 18 18 18 19 20 21 23 25 27 30 32 34 35 37 39 41 42 42 40 40 39 37 36 33 32 33 32 32 31 30 29 28 27 26 25 24
21 21 21 21 19 18 18 17 18 18 18 18 19 20 22 24 26 28 31 33 35 37 39 40 41 41 41 41 40 39 36 34 34 33 33 33 32 31 30 29 27 27 26
22 22 21 20 19 19 18 18 18 18 17 17 16 17 18 20 23 25 28 30 32 33 36 38 39 41 42 42 42 41 39 38 36 34 34 34 33 32 32 31 30 29 28
22 22 21 20 20 20 20 19 19 18 17 16 16 15 16 18 20 21 24 26 28 31 33 35 37 39 41 42 42 42 42 39 38 36 35 34 34 34 34 34 33 31 30

GEFSSE_500_meanwind_090.txt.gz
Wind_Speed
6 6 6 6 6 6 6 6 7 8 9 10 11 12 12 13 13 14 14 13 13 13 13 13 12 12 12 12 11 11 11 11 11 10 10 9 9 9 8 7 6 5 5
8 9 8 9 9 9 9 9 9 10 10 11 11 12 13 13 14 14 14 13 13 13 12 12 12 12 11 11 11 11 10 10 9 9 8 8 8 7 6 5 5 5 5
10 11 11 11 11 11 12 12 12 12 12 12 13 13 14 14 15 15 14 14 13 13 12 12 11 11 10 9 10 10 9 8 8 7 7 7 7 6 6 5 4 4 4
12 12 12 12 13 13 14 15 15 14 14 14 14 14 15 15 15 15 15 14 14 13 12 11 11 10 9 9 9 9 8 7 7 6 6 6 6 5 5 4 4 3 3
13 13 14 15 15 16 16 17 16 17 17 17 17 17 17 17 16 16 15 15 14 13 12 11 10 10 9 8 8 8 8 7 6 6 6 6 5 5 4 3 3 3 2
15 15 16 16 17 18 18 19 19 19 19 20 20 20 19 19 18 17 16 16 15 14 13 12 11 10 9 9 8 8 8 7 6 6 5 5 4 4 4 3 3 3 2
17 17 18 18 19 20 20 21 21 21 22 22 22 22 21 21 20 20 19 18 17 15 14 13 12 11 10 10 9 8 8 7 6 5 5 5 4 4 4 3 3 2 2
21 21 21 21 21 21 22 22 23 24 24 24 25 24 24 24 24 23 22 21 19 18 17 15 14 13 12 11 10 9 8 7 6 5 5 4 4 4 3 3 3 3 2
24 25 24 24 24 24 24 23 24 25 25 26 26 26 26 25 24 25 25 24 22 21 19 18 17 15 14 13 11 10 9 8 7 6 5 5 4 4 3 3 3 3 3
27 27 27 27 27 28 28 28 27 27 26 27 28 28 27 25 25 25 26 26 25 24 22 21 19 18 16 15 13 12 11 9 8 6 6 6 5 4 4 3 3 3 3
29 29 30 30 31 31 31 31 31 31 30 30 29 30 30 29 27 26 26 26 27 26 25 24 23 21 19 18 16 14 13 11 9 8 7 7 6 5 4 4 3 4 4
30 30 32 32 32 32 32 33 33 33 33 33 32 31 31 31 30 29 27 27 28 28 27 25 24 23 22 21 19 17 15 13 12 10 9 8 7 6 5 4 4 4 4
31 31 32 32 33 33 33 33 34 34 35 35 35 34 32 32 31 30 29 28 28 28 27 26 27 25 24 23 21 19 17 16 14 12 11 9 8 7 6 5 5 5 4
30 30 30 30 31 32 32 32 33 33 34 34 35 35 35 34 34 33 32 30 29 29 28 26 27 27 25 24 24 21 19 17 16 14 12 11 10 9 8 7 6 6 5
26 26 26 26 27 28 28 29 30 31 32 32 33 34 35 35 35 35 33 33 31 30 30 29 27 27 27 26 25 24 22 19 18 17 15 13 12 11 9 8 8 7 6
23 23 23 24 24 25 26 27 28 29 30 31 31 32 34 35 35 36 35 35 34 32 30 30 29 29 28 27 28 28 25 23 20 19 17 16 14 13 11 10 9 8 8
22 23 23 23 23 24 24 24 25 26 27 28 29 30 32 33 34 34 35 35 35 34 33 32 31 30 29 28 28 29 28 26 23 21 20 19 17 15 14 12 11 10 10
22 23 23 23 23 23 23 23 23 24 25 25 26 27 29 30 32 33 34 34 35 35 34 33 33 32 31 30 29 29 29 27 25 24 23 21 19 18 17 15 14 13 12
21 21 21 22 22 22 22 22 22 23 23 24 25 26 28 29 30 31 32 33 34 34 34 34 34 33 33 32 31 30 30 29 28 27 25 23 22 21 19 18 17 15 14
21 21 22 22 22 22 22 21 21 21 22 23 24 24 26 27 28 30 31 32 33 34 34 35 34 33 33 33 32 31 30 30 29 29 27 26 24 23 22 21 19 18 17
21 22 22 22 22 21 20 20 19 20 20 21 21 22 23 24 26 28 29 30 32 33 33 34 34 34 34 34 32 32 31 31 30 29 29 28 27 26 25 24 22 21 20
21 22 22 22 21 21 20 19 19 19 20 20 19 20 20 21 23 25 27 28 30 31 32 32 34 34 34 33 33 32 32 32 31 31 30 30 30 28 27 25 25 23 22
21 22 22 22 22 21 20 20 20 20 19 19 18 18 18 19 20 22 23 25 27 29 30 31 32 33 34 35 34 33 33 34 33 33 32 31 31 30 29 27 26 25 24
21 22 23 22 22 22 21 21 21 20 20 18 17 17 17 17 18 20 21 23 25 27 28 29 31 32 33 34 35 34 34 33 34 33 33 32 32 32 31 29 29 28 27
21 22 23 23 23 23 22 22 22 21 20 19 17 16 15 16 17 18 19 21 22 24 26 27 29 30 31 33 33 34 35 35 34 33 33 33 33 33 32 30 30 31 30
22 23 23 23 23 23 23 23 22 21 21 20 18 16 15 15 15 16 17 18 20 22 24 26 27 29 30 32 33 33 34 35 35 34 33 34 34 34 33 33 32 31 31

GEFSSE_500_meanwind_096.txt.gz
Wind_Speed
7 7 7 7 7 7 6 6 7 7 8 9 10 11 12 13 14 15 15 15 15 15 15 15 15 15 15 15 15 14 13 12 12 12 10 10 9 8 7 6 5 5 4
8 8 8 8 9 9 8 9 9 10 11 11 12 13 14 14 15 16 16 15 15 15 15 15 15 15 15 14 14 13 12 11 11 10 9 9 8 8 7 6 5 4 3
9 9 10 10 10 10 11 11 12 13 14 14 15 15 16 16 16 16 16 16 16 16 15 15 15 14 14 13 13 12 11 10 10 9 8 8 7 7 6 6 5 4 3
11 11 11 11 12 13 13 14 15 16 17 16 16 17 18 18 17 17 17 17 16 16 16 15 15 14 13 13 12 11 10 9 9 8 7 7 6 6 6 5 4 3 2
13 14 14 14 14 15 16 16 17 18 19 19 19 19 19 19 19 20 19 18 18 17 16 16 15 14 13 12 11 10 9 9 9 8 7 7 6 6 5 4 4 3 2
15 16 16 16 17 17 18 18 19 19 20 21 21 22 22 21 21 21 21 20 19 18 17 17 16 15 13 12 11 10 9 8 8 8 7 7 6 6 5 5 4 3 3
18 19 19 20 20 21 21 22 22 22 22 22 23 23 23 23 23 22 23 22 21 20 19 18 17 16 15 13 12 10 9 9 8 8 7 7 6 6 5 5 4 4 4
22 22 22 23 23 24 25 25 26 25 25 25 25 25 25 26 25 25 24 23 23 23 21 20 19 18 16 14 13 11 10 9 9 8 7 7 6 5 5 5 4 4 4
23 24 25 25 26 27 27 27 28 28 28 28 28 27 27 28 29 28 27 26 26 25 24 23 21 19 18 17 15 13 11 10 10 9 8 7 6 5 5 4 4 5 5
25 26 26 27 27 28 28 29 30 30 30 30 30 30 30 29 30 30 29 28 27 27 26 25 24 22 21 19 17 15 13 12 11 10 9 7 6 6 5 4 5 5 6
25 26 27 27 28 28 28 29 30 31 32 32 32 32 32 31 30 31 30 30 29 27 27 27 26 24 23 21 19 17 15 13 12 11 10 9 7 6 6 5 5 5 6
24 25 25 26 26 26 27 28 29 30 31 33 34 34 34 33 32 31 31 31 31 29 28 27 26 26 25 24 22 20 18 16 14 13 12 10 9 8 7 6 6 6 6
22 22 22 22 22 23 23 24 26 27 29 30 32 33 33 34 34 33 32 32 31 30 29 29 28 28 27 26 24 23 21 19 17 16 15 13 11 10 8 7 7 7 6
20 20 20 20 21 21 21 21 22 24 25 27 29 30 31 32 33 34 33 33 32 32 31 30 29 29 28 27 26 24 23 21 20 19 17 15 13 12 10 9 8 8 8
19 19 20 20 20 21 21 21 21 21 22 23 26 28 29 31 33 34 34 33 33 33 32 31 31 30 30 29 27 26 25 23 21 20 19 17 15 14 12 11 10 9 9
19 19 19 19 20 20 20 20 20 21 21 21 22 24 26 28 30 32 33 34 33 33 33 32 32 31 31 31 29 28 27 25 23 22 21 20 18 16 15 13 12 11 10
18 18 18 19 19 19 19 19 20 20 21 21 21 22 23 25 27 30 32 33 33 33 33 33 32 32 31 31 31 28 28 28 27 25 23 22 21 19 17 15 14 13 12
18 19 19 19 19 19 19 19 19 19 20 20 20 21 22 23 24 26 29 32 33 34 34 33 33 32 32 31 32 30 28 27 28 27 26 25 23 22 20 18 16 15 14
18 19 19 20 20 20 19 19 18 18 18 18 19 20 21 21 22 24 26 28 31 33 34 33 33 33 32 32 32 31 30 28 27 28 28 27 26 24 22 21 19 18 16
19 19 20 20 21 21 20 19 18 17 17 17 17 18 19 19 20 22 24 26 28 30 32 33 33 33 33 33 33 32 32 31 28 28 28 28 28 26 25 23 22 20 19
19 20 21 21 21 21 21 20 19 18 17 16 16 16 17 17 18 20 22 24 26 28 30 31 32 33 33 32 32 32 32 32 31 29 30 29 29 28 27 26 25 23 22
20 21 22 22 22 21 20 20 19 18 17 16 16 15 15 15 16 17 19 21 23 25 27 29 30 32 32 32 32 32 32 32 32 31 31 31 32 31 29 28 28 26 25
20 21 22 22 22 21 21 20 20 19 18 17 17 16 15 14 14 15 16 18 20 22 24 27 28 30 30 31 32 31 32 32 32 33 32 31 32 32 32 30 30 29 28
20 21 22 23 23 22 22 21 21 20 19 18 17 17 15 14 12 13 14 15 18 20 22 24 26 27 28 29 31 32 32 32 32 33 33 32 32 33 33 33 31 30 30
20 21 22 23 23 23 22 22 21 20 20 19 18 17 16 14 12 12 12 13 14 17 19 22 24 26 28 29 30 31 31 32 32 33 33 34 33 33 32 33 33 33 32
20 21 23 23 24 24 23 23 22 21 21 20 19 18 16 15 13 11 11 12 12 14 16 19 21 23 25 28 29 30 31 31 32 32 33 34 33 33 33 33 33 34 34

GEFSSE_500_meanwind_102.txt.gz
Wind_Speed
9 9 8 7 8 7 8 8 8 8 8 8 9 10 10 10 11 12 12 12 12 12 12 12 11 11 11 11 11 11 12 12 12 11 10 10 9 8 7 6 5 4 3
10 9 9 8 8 9 9 9 10 10 11 11 11 11 12 12 12 13 13 13 13 13 13 12 11 11 11 11 11 11 10 10 10 10 9 8 8 7 7 6 5 3 2
10 10 10 10 11 11 11 11 12 12 13 13 13 13 14 14 14 14 14 14 13 13 13 12 12 11 11 11 10 10 10 9 9 8 8 7 7 6 6 5 4 3 2
12 12 13 14 13 13 14 14 14 15 15 15 16 16 16 16 16 16 16 15 15 14 13 13 12 12 11 11 10 9 9 9 8 7 7 7 6 6 5 4 3 2 2
15 15 16 16 16 16 17 17 17 18 18 18 18 18 18 18 19 18 18 17 17 16 14 14 13 12 12 11 10 9 8 8 7 7 6 6 6 5 5 4 3 2 1
17 18 19 19 19 19 20 21 21 21 21 21 21 21 21 21 21 21 20 19 18 17 16 15 15 14 13 12 10 9 9 8 7 7 6 6 5 5 4 3 2 1 1
20 21 21 21 21 21 22 22 23 24 25 25 24 23 23 23 23 23 22 22 20 20 19 18 17 15 14 13 11 10 9 9 8 7 6 5 5 4 4 3 2 2 2
21 22 23 23 23 24 24 25 26 27 27 27 27 27 26 26 25 24 24 24 23 22 20 20 19 17 15 14 13 11 10 9 9 8 7 6 5 4 4 3 3 2 3
22 23 23 24 24 25 25 26 27 28 29 30 30 30 29 29 28 27 27 26 26 25 24 22 21 20 18 16 15 14 12 11 10 9 8 6 5 5 4 4 3 3 4
21 22 23 23 24 25 25 26 27 28 29 30 31 31 31 31 31 30 29 28 28 27 26 25 23 22 20 19 17 16 14 13 12 10 9 8 6 5 5 4 4 4 4
21 21 21 21 21 22 23 24 25 26 27 28 30 31 32 32 32 32 31 29 28 28 27 26 25 24 23 21 20 18 17 15 14 13 11 9 8 7 6 5 5 4 5
19 19 19 19 19 20 20 21 22 23 24 26 27 29 31 31 32 32 32 32 31 30 29 28 27 25 24 22 21 20 18 16 16 15 13 11 10 9 7 7 6 6 6
17 17 17 18 18 18 19 20 20 21 22 23 24 25 27 29 31 32 33 33 33 32 31 29 28 27 25 24 22 22 20 19 17 17 16 14 12 11 9 8 7 7 6
16 16 16 16 17 17 18 19 19 20 21 22 23 24 25 26 28 30 31 33 33 33 32 31 30 29 27 27 25 24 23 21 19 18 18 17 15 13 12 11 9 8 8
16 16 16 17 17 18 18 18 18 18 19 20 21 22 23 25 26 27 29 30 32 32 32 31 30 29 28 28 27 26 25 24 21 20 19 19 18 16 14 13 12 10 10
15 16 16 17 17 18 18 18 18 18 18 19 20 21 23 24 25 26 27 29 30 31 32 31 30 29 29 27 27 27 27 26 24 23 21 21 19 18 17 15 14 12 11
15 16 16 17 17 18 18 18 18 18 18 18 18 19 20 21 23 24 26 27 28 30 32 32 31 31 30 28 28 27 27 27 25 24 24 23 21 20 19 18 16 15 13
15 16 17 18 18 19 19 19 19 19 18 18 17 17 18 19 20 22 23 25 27 28 30 31 32 32 31 29 28 28 28 27 27 26 25 25 24 23 21 20 18 17 15
16 17 18 19 20 20 20 20 20 19 19 18 17 17 17 17 17 19 20 23 25 26 28 30 31 32 32 31 30 29 29 28 28 28 27 27 27 25 24 22 21 20 18
16 17 19 20 20 21 21 21 21 20 19 18 16 15 15 15 16 17 18 20 22 24 26 28 29 31 32 31 31 31 30 29 29 29 29 28 29 28 26 25 23 22 21
16 18 20 21 21 21 22 22 22 21 19 18 17 16 15 15 15 15 16 17 19 21 23 25 27 30 31 31 31 31 30 30 30 30 30 29 30 30 28 27 26 24 24
17 19 20 21 21 22 22 23 22 21 20 19 18 16 15 15 15 15 15 16 17 18 20 22 24 27 30 31 31 32 32 31 30 30 30 30 30 30 30 29 29 27 26
17 18 19 21 22 22 23 23 23 22 22 21 19 17 16 15 14 14 14 14 15 16 18 20 22 24 27 29 30 31 31 32 31 30 31 31 31 32 30 30 30 30 29
16 18 19 21 22 23 23 23 23 23 22 21 20 18 17 15 14 14 13 13 13 14 15 17 19 21 24 26 28 29 29 30 30 31 31 32 32 32 31 30 31 31 30
16 17 19 20 22 23 23 24 24 24 23 21 20 19 18 16 14 13 12 12 12 13 13 15 17 19 20 22 25 27 28 29 29 29 30 31 33 33 32 31 31 32 32
15 17 19 20 22 23 23 24 24 24 23 22 21 20 19 17 15 14 12 11 10 11 11 12 14 17 18 20 22 24 27 28 28 28 29 30 32 33 33 33 33 33 33